Weather History for Florala, AL

Change the Weather History Date:

Tuesday, January 8, 2013

  Actual Average (KCEW) Record (KCEW)
Temperature  
Mean Temperature 55 °F -  
Max Temperature 64 °F 60 °F 75 °F (2005)
Min Temperature 46 °F 39 °F 16 °F (2014)
Degree Days  
Heating Degree Days 10    
Growing Degree Days 5 (Base 50)    
Moisture  
Dew Point 46 °F    
Average Humidity 72    
Maximum Humidity 78    
Minimum Humidity 61    
Precipitation  
Precipitation 0.00 in - - ()
Sea Level Pressure  
Sea Level Pressure 30.25 in    
Wind  
Wind Speed 6 mph (ENE)    
Max Wind Speed 8 mph    
Max Gust Speed -    
Visibility 10 miles    
Events      
Averages and records for this station are not official NWS values.
T = Trace of Precipitation, MM = Missing Value Source: NWS Daily Summary

Daily Weather History Graph

Daily Weather History Graph

Search for Another Location

Airport:

Trip Planner

Search our weather history database for the weather conditions in past years. The results will help you decide how hot, cold, wet, or windy it might be!

Date:

Astronomy

Jan. 08, 2013 Rise Set
Actual Time 6:44 AM CST 4:59 PM CST
Civil Twilight 6:18 AM CST 5:26 PM CST
Nautical Twilight 5:48 AM CST 5:56 PM CST
Astronomical Twilight 5:18 AM CST 6:25 PM CST
Moon 3:18 AM CST (1/8) 2:01 PM CST (1/8)
Length of Visible Light 11h 08m
Length of Day
10h 15m
Waning Crescent, 13% of the Moon is Illuminated
Jan 8
Waning Crescent
Jan 11
New
Jan 18
First Quarter
Jan 26
Full
Feb 3
Last Quarter

Hourly Weather History & Observations

Time (CST) Temp. Windchill Dew Point Humidity Pressure Visibility Wind Dir Wind Speed Gust Speed Precip Events Conditions
12:58 AM 46.0 °F 43.1 °F 37.9 °F 73% 30.23 in 10.0 mi East 5.8 mph - N/A   Clear
1:58 AM 46.9 °F - 39.0 °F 74% 30.24 in 10.0 mi ENE 5.8 mph - N/A   Overcast
2:58 AM 46.9 °F - 39.0 °F 74% 30.23 in 10.0 mi ENE 5.8 mph - N/A   Overcast
3:58 AM 46.9 °F - 39.0 °F 74% 30.22 in 10.0 mi East 5.8 mph - N/A   Overcast
4:58 AM 46.0 °F 43.1 °F 39.0 °F 76% 30.23 in 10.0 mi East 5.8 mph - N/A   Mostly Cloudy
5:17 AM 46.4 °F 44.3 °F 39.2 °F 76% 30.24 in 10.0 mi ENE 4.6 mph - N/A   Overcast
5:29 AM 46.4 °F 42.9 °F 39.2 °F 76% 30.24 in 10.0 mi East 6.9 mph - N/A   Overcast
5:34 AM 46.4 °F 42.9 °F 39.2 °F 76% 30.24 in 10.0 mi East 6.9 mph - N/A   Overcast
5:58 AM 46.9 °F - 39.0 °F 74% 30.25 in 10.0 mi East 5.8 mph - N/A   Overcast
6:58 AM 46.9 °F - 39.9 °F 77% 30.27 in 10.0 mi East 4.6 mph - N/A   Overcast
7:46 AM 48.2 °F - 39.2 °F 71% 30.29 in 10.0 mi East 6.9 mph - N/A   Overcast
7:58 AM 48.9 °F - 41.0 °F 74% 30.28 in 10.0 mi ENE 6.9 mph - N/A   Overcast
8:56 AM 51.8 °F - 42.8 °F 71% 30.30 in 10.0 mi ENE 6.9 mph - N/A   Overcast
8:58 AM 51.1 °F - 42.1 °F 71% 30.30 in 10.0 mi East 8.1 mph - N/A   Overcast
9:39 AM 53.6 °F - 44.6 °F 72% 30.29 in 10.0 mi East 8.1 mph - N/A   Overcast
9:58 AM 55.9 °F - 45.0 °F 67% 30.30 in 10.0 mi ESE 5.8 mph - N/A   Overcast
10:58 AM 57.9 °F - 46.9 °F 67% 30.27 in 10.0 mi ENE 5.8 mph - N/A   Overcast
11:58 AM 61.0 °F - 48.9 °F 64% 30.26 in 10.0 mi ENE 3.5 mph - N/A   Overcast
12:58 PM 62.1 °F - 50.0 °F 65% 30.24 in 10.0 mi NNE 4.6 mph - N/A   Overcast
1:42 PM 64.4 °F - 51.8 °F 64% 30.22 in 10.0 mi ENE 5.8 mph - N/A   Overcast
1:58 PM 64.9 °F - 51.1 °F 61% 30.22 in 10.0 mi Variable 3.5 mph - N/A   Overcast
2:58 PM 64.0 °F - 52.0 °F 65% 30.22 in 10.0 mi East 5.8 mph - N/A   Overcast
3:58 PM 63.0 °F - 52.0 °F 67% 30.22 in 10.0 mi Calm Calm - N/A   Overcast
4:58 PM 61.0 °F - 54.0 °F 78% 30.22 in 10.0 mi NNE 3.5 mph - N/A   Overcast
5:58 PM 62.1 °F - 53.1 °F 72% 30.22 in 10.0 mi ENE 4.6 mph - N/A   Overcast
6:58 PM 61.0 °F - 53.1 °F 75% 30.22 in 10.0 mi NE 3.5 mph - N/A   Mostly Cloudy
7:58 PM 60.1 °F - 53.1 °F 78% 30.22 in 10.0 mi ENE 3.5 mph - N/A   Clear
8:58 PM 60.1 °F - 53.1 °F 78% 30.22 in 10.0 mi East 5.8 mph - N/A   Clear
9:58 PM 61.0 °F - 53.1 °F 75% 30.22 in 10.0 mi East 6.9 mph - N/A   Clear
10:58 PM 60.1 °F - 53.1 °F 78% 30.24 in 10.0 mi East 6.9 mph - N/A   Scattered Clouds
11:58 PM 60.1 °F - 53.1 °F 78% 30.24 in 10.0 mi East 6.9 mph - N/A   Mostly Cloudy